Time,TemperatureF,DewpointF,PressureIn,WindDirection,WindDirectionDegrees,WindSpeedMPH,WindSpeedGustMPH,Humidity,HourlyPrecipIn,Conditions,Clouds,dailyrainin,SoftwareType,DateUTC
2013-05-03 00:03:00,35.3,26.5,30.47,NNE,16,3.0,5.0,70,0.00,,,0.00,Wunderground v.1.15,2013-05-03 05:03:00,
2013-05-03 00:08:00,35.2,26.4,30.47,NNE,22,4.0,7.0,70,0.00,,,0.00,Wunderground v.1.15,2013-05-03 05:08:00,
2013-05-03 00:13:00,35.0,26.5,30.47,NNW,346,2.0,4.0,71,0.00,,,0.00,Wunderground v.1.15,2013-05-03 05:13:00,
2013-05-03 00:18:00,35.0,26.5,30.47,NNW,348,6.0,6.0,71,0.00,,,0.00,Wunderground v.1.15,2013-05-03 05:18:00,
2013-05-03 00:24:00,35.0,26.5,30.47,NNW,342,6.0,6.0,71,0.00,,,0.00,Wunderground v.1.15,2013-05-03 05:24:00,
2013-05-03 00:30:00,34.8,26.4,30.47,NNE,12,3.0,8.0,71,0.00,,,0.00,Wunderground v.1.15,2013-05-03 05:30:00,
2013-05-03 00:35:00,34.7,26.3,30.47,North,5,0.0,8.0,71,0.00,,,0.00,Wunderground v.1.15,2013-05-03 05:35:00,
2013-05-03 00:40:00,34.6,26.2,30.47,North,360,0.0,8.0,71,0.00,,,0.00,Wunderground v.1.15,2013-05-03 05:40:00,
2013-05-03 00:46:00,34.4,26.3,30.47,NNE,28,1.0,5.0,72,0.00,,,0.00,Wunderground v.1.15,2013-05-03 05:46:00,
2013-05-03 00:52:00,34.4,26.3,30.47,North,5,2.0,4.0,72,0.00,,,0.00,Wunderground v.1.15,2013-05-03 05:52:00,
2013-05-03 00:58:00,34.3,26.2,30.47,NNW,333,0.0,5.0,72,0.00,,,0.00,Wunderground v.1.15,2013-05-03 05:58:00,
2013-05-03 01:03:00,34.2,26.1,30.46,NNW,344,5.0,5.0,72,0.00,,,0.00,Wunderground v.1.15,2013-05-03 06:03:00,
2013-05-03 01:08:00,34.2,26.4,30.46,North,355,2.0,8.0,73,0.00,,,0.00,Wunderground v.1.15,2013-05-03 06:08:00,
2013-05-03 01:14:00,34.2,26.4,30.46,NNW,344,5.0,5.0,73,0.00,,,0.00,Wunderground v.1.15,2013-05-03 06:14:00,
2013-05-03 01:20:00,34.1,26.3,30.46,NE,38,5.0,5.0,73,0.00,,,0.00,Wunderground v.1.15,2013-05-03 06:20:00,
2013-05-03 01:26:00,34.1,26.3,30.46,NNE,22,0.0,5.0,73,0.00,,,0.00,Wunderground v.1.15,2013-05-03 06:26:00,
2013-05-03 01:31:00,34.1,26.3,30.45,North,350,6.0,7.0,73,0.00,,,0.00,Wunderground v.1.15,2013-05-03 06:31:00,
2013-05-03 01:37:00,34.1,26.3,30.45,NNW,348,4.0,5.0,73,0.00,,,0.00,Wunderground v.1.15,2013-05-03 06:37:00,
2013-05-03 01:43:00,33.9,26.2,30.45,North,11,2.0,3.0,73,0.00,,,0.00,Wunderground v.1.15,2013-05-03 06:43:00,
2013-05-03 01:49:00,33.9,26.5,30.45,North,360,3.0,8.0,74,0.00,,,0.00,Wunderground v.1.15,2013-05-03 06:49:00,
2013-05-03 01:55:00,33.9,26.5,30.45,North,9,0.0,7.0,74,0.00,,,0.00,Wunderground v.1.15,2013-05-03 06:55:00,
2013-05-03 02:01:00,33.8,26.4,30.45,North,350,0.0,7.0,74,0.00,,,0.00,Wunderground v.1.15,2013-05-03 07:01:00,
2013-05-03 02:06:00,33.8,26.4,30.44,NNE,22,6.0,6.0,74,0.00,,,0.00,Wunderground v.1.15,2013-05-03 07:06:00,
2013-05-03 02:11:00,33.8,26.4,30.44,NNW,348,3.0,7.0,74,0.00,,,0.00,Wunderground v.1.15,2013-05-03 07:11:00,
2013-05-03 02:16:00,33.7,26.3,30.44,NNE,24,2.0,7.0,74,0.00,,,0.00,Wunderground v.1.15,2013-05-03 07:16:00,
2013-05-03 02:21:00,33.7,26.6,30.43,North,350,2.0,9.0,75,0.00,,,0.00,Wunderground v.1.15,2013-05-03 07:21:00,
2013-05-03 02:26:00,33.6,26.2,30.43,NNE,16,6.0,8.0,74,0.00,,,0.00,Wunderground v.1.15,2013-05-03 07:26:00,
2013-05-03 02:31:00,33.5,26.1,30.43,NNW,341,4.0,8.0,74,0.00,,,0.00,Wunderground v.1.15,2013-05-03 07:31:00,
2013-05-03 02:36:00,33.5,26.1,30.43,North,360,7.0,7.0,74,0.00,,,0.00,Wunderground v.1.15,2013-05-03 07:36:00,
2013-05-03 02:41:00,33.4,26.0,30.43,NNE,32,5.0,8.0,74,0.00,,,0.00,Wunderground v.1.15,2013-05-03 07:41:00,
2013-05-03 02:47:00,33.2,26.1,30.43,North,350,4.0,10.0,75,0.00,,,0.00,Wunderground v.1.15,2013-05-03 07:47:00,
2013-05-03 02:52:00,33.2,26.1,30.43,NNW,337,7.0,7.0,75,0.00,,,0.00,Wunderground v.1.15,2013-05-03 07:52:00,
2013-05-03 02:57:00,33.1,26.0,30.43,North,351,5.0,7.0,75,0.00,,,0.00,Wunderground v.1.15,2013-05-03 07:57:00,
2013-05-03 03:02:00,33.2,26.1,30.43,NNE,29,6.0,6.0,75,0.00,,,0.00,Wunderground v.1.15,2013-05-03 08:02:00,
2013-05-03 03:07:00,33.2,26.1,30.43,NNE,32,5.0,8.0,75,0.00,,,0.00,Wunderground v.1.15,2013-05-03 08:07:00,
2013-05-03 03:12:00,33.1,26.0,30.43,NNW,342,2.0,6.0,75,0.00,,,0.00,Wunderground v.1.15,2013-05-03 08:12:00,
2013-05-03 03:17:00,33.0,25.9,30.43,NW,319,0.0,6.0,75,0.00,,,0.00,Wunderground v.1.15,2013-05-03 08:17:00,
2013-05-03 03:22:00,32.9,25.8,30.43,North,360,1.0,3.0,75,0.00,,,0.00,Wunderground v.1.15,2013-05-03 08:22:00,
2013-05-03 03:28:00,32.8,25.7,30.43,North,355,3.0,7.0,75,0.00,,,0.00,Wunderground v.1.15,2013-05-03 08:28:00,
2013-05-03 03:33:00,32.6,25.9,30.42,NNW,347,0.0,5.0,76,0.00,,,0.00,Wunderground v.1.15,2013-05-03 08:33:00,
2013-05-03 03:38:00,32.5,25.8,30.42,NNE,13,0.0,10.0,76,0.00,,,0.00,Wunderground v.1.15,2013-05-03 08:38:00,
2013-05-03 03:43:00,32.4,26.0,30.41,North,11,1.0,6.0,77,0.00,,,0.00,Wunderground v.1.15,2013-05-03 08:43:00,
2013-05-03 03:48:00,32.5,26.1,30.42,NNE,30,4.0,11.0,77,0.00,,,0.00,Wunderground v.1.15,2013-05-03 08:48:00,
2013-05-03 03:54:00,32.5,25.8,30.42,NNE,13,0.0,6.0,76,0.00,,,0.00,Wunderground v.1.15,2013-05-03 08:54:00,
2013-05-03 03:59:00,32.5,25.8,30.42,NE,42,7.0,8.0,76,0.00,,,0.00,Wunderground v.1.15,2013-05-03 08:59:00,
2013-05-03 04:04:00,32.4,25.7,30.42,NNW,339,6.0,7.0,76,0.00,,,0.00,Wunderground v.1.15,2013-05-03 09:04:00,
2013-05-03 04:09:00,32.4,25.7,30.41,NNE,25,4.0,9.0,76,0.00,,,0.00,Wunderground v.1.15,2013-05-03 09:09:00,
2013-05-03 04:14:00,32.3,25.9,30.41,North,349,0.0,6.0,77,0.00,,,0.00,Wunderground v.1.15,2013-05-03 09:14:00,
2013-05-03 04:19:00,32.2,25.8,30.41,NNE,22,0.0,6.0,77,0.00,,,0.00,Wunderground v.1.15,2013-05-03 09:19:00,
2013-05-03 04:24:00,32.1,25.7,30.41,NNE,16,9.0,9.0,77,0.00,,,0.00,Wunderground v.1.15,2013-05-03 09:24:00,
2013-05-03 04:29:00,32.2,25.8,30.41,NNE,22,8.0,9.0,77,0.00,,,0.00,Wunderground v.1.15,2013-05-03 09:29:00,
2013-05-03 04:34:00,32.1,25.7,30.40,North,360,3.0,5.0,77,0.00,,,0.00,Wunderground v.1.15,2013-05-03 09:34:00,
2013-05-03 04:39:00,32.1,25.7,30.40,North,360,6.0,8.0,77,0.00,,,0.00,Wunderground v.1.15,2013-05-03 09:39:00,
2013-05-03 04:44:00,32.1,25.7,30.40,NNE,23,7.0,7.0,77,0.00,,,0.00,Wunderground v.1.15,2013-05-03 09:44:00,
2013-05-03 04:49:00,32.1,25.7,30.40,NNW,330,2.0,8.0,77,0.00,,,0.00,Wunderground v.1.15,2013-05-03 09:49:00,
2013-05-03 04:55:00,32.0,25.6,30.40,NNW,344,2.0,5.0,77,0.00,,,0.00,Wunderground v.1.15,2013-05-03 09:55:00,
2013-05-03 05:00:00,31.8,25.4,30.40,NNE,22,3.0,8.0,77,0.00,,,0.00,Wunderground v.1.15,2013-05-03 10:00:00,
2013-05-03 05:05:00,31.7,25.6,30.41,North,360,0.0,5.0,78,0.00,,,0.00,Wunderground v.1.15,2013-05-03 10:05:00,
2013-05-03 05:10:00,31.5,25.4,30.40,NNE,28,3.0,7.0,78,0.00,,,0.00,Wunderground v.1.15,2013-05-03 10:10:00,
2013-05-03 05:15:00,31.4,25.3,30.41,NNE,32,0.0,6.0,78,0.00,,,0.00,Wunderground v.1.15,2013-05-03 10:15:00,
2013-05-03 05:20:00,31.3,25.5,30.41,North,351,3.0,6.0,79,0.00,,,0.00,Wunderground v.1.15,2013-05-03 10:20:00,
2013-05-03 05:25:00,31.2,25.4,30.40,North,360,4.0,5.0,79,0.00,,,0.00,Wunderground v.1.15,2013-05-03 10:25:00,
2013-05-03 05:30:00,31.1,25.3,30.40,North,5,5.0,7.0,79,0.00,,,0.00,Wunderground v.1.15,2013-05-03 10:30:00,
2013-05-03 05:35:00,31.1,25.3,30.40,NNE,33,4.0,8.0,79,0.00,,,0.00,Wunderground v.1.15,2013-05-03 10:35:00,
2013-05-03 05:40:00,31.0,25.2,30.40,NNE,29,6.0,8.0,79,0.00,,,0.00,Wunderground v.1.15,2013-05-03 10:40:00,
2013-05-03 05:46:00,31.1,25.3,30.40,NNE,28,5.0,8.0,79,0.00,,,0.00,Wunderground v.1.15,2013-05-03 10:46:00,
2013-05-03 05:51:00,31.2,25.4,30.39,NW,324,0.0,8.0,79,0.00,,,0.00,Wunderground v.1.15,2013-05-03 10:51:00,
2013-05-03 05:56:00,31.2,25.4,30.39,North,355,3.0,5.0,79,0.00,,,0.00,Wunderground v.1.15,2013-05-03 10:56:00,
2013-05-03 06:01:00,31.3,25.5,30.39,NNE,15,0.0,9.0,79,0.00,,,0.00,Wunderground v.1.15,2013-05-03 11:01:00,
2013-05-03 06:06:00,31.4,25.6,30.39,NNE,15,10.0,10.0,79,0.00,,,0.00,Wunderground v.1.15,2013-05-03 11:06:00,
2013-05-03 06:11:00,31.5,25.7,30.39,NNW,342,2.0,10.0,79,0.00,,,0.00,Wunderground v.1.15,2013-05-03 11:11:00,
2013-05-03 06:16:00,31.7,25.9,30.39,NNW,342,3.0,9.0,79,0.00,,,0.00,Wunderground v.1.15,2013-05-03 11:16:00,
2013-05-03 06:22:00,31.8,25.7,30.39,NNE,15,2.0,3.0,78,0.00,,,0.00,Wunderground v.1.15,2013-05-03 11:22:00,
2013-05-03 06:27:00,31.9,25.8,30.39,NNE,33,3.0,8.0,78,0.00,,,0.00,Wunderground v.1.15,2013-05-03 11:27:00,
2013-05-03 06:32:00,32.0,27.4,30.38,NNE,32,0.0,5.0,83,0.00,,,0.00,Wunderground v.1.15,2013-05-03 11:32:00,
2013-05-03 06:37:00,32.1,26.0,30.38,North,11,10.0,10.0,78,0.00,,,0.00,Wunderground v.1.15,2013-05-03 11:37:00,
2013-05-03 06:42:00,32.1,26.0,30.38,NE,54,4.0,4.0,78,0.00,,,0.00,Wunderground v.1.15,2013-05-03 11:42:00,
2013-05-03 06:48:00,32.3,26.2,30.38,NNE,17,0.0,7.0,78,0.00,,,0.00,Wunderground v.1.15,2013-05-03 11:48:00,
2013-05-03 06:53:00,32.4,26.0,30.38,NNW,341,3.0,8.0,77,0.00,,,0.00,Wunderground v.1.15,2013-05-03 11:53:00,
2013-05-03 06:58:00,32.5,26.1,30.38,NNE,32,3.0,8.0,77,0.00,,,0.00,Wunderground v.1.15,2013-05-03 11:58:00,
2013-05-03 07:03:00,32.6,25.9,30.38,NNE,19,0.0,5.0,76,0.00,,,0.00,Wunderground v.1.15,2013-05-03 12:03:00,
2013-05-03 07:08:00,32.7,26.3,30.38,North,5,3.0,8.0,77,0.00,,,0.00,Wunderground v.1.15,2013-05-03 12:08:00,
2013-05-03 07:13:00,32.9,26.2,30.38,NNE,28,8.0,8.0,76,0.00,,,0.00,Wunderground v.1.15,2013-05-03 12:13:00,
2013-05-03 07:19:00,33.1,26.7,30.38,NNW,329,3.0,9.0,77,0.00,,,0.00,Wunderground v.1.15,2013-05-03 12:19:00,
2013-05-03 07:24:00,33.2,26.5,30.38,NNE,25,5.0,13.0,76,0.00,,,0.00,Wunderground v.1.15,2013-05-03 12:24:00,
2013-05-03 07:29:00,33.2,26.5,30.38,NNE,12,4.0,13.0,76,0.00,,,0.00,Wunderground v.1.15,2013-05-03 12:29:00,
2013-05-03 07:34:00,33.4,26.3,30.37,ENE,57,6.0,10.0,75,0.00,,,0.00,Wunderground v.1.15,2013-05-03 12:34:00,
2013-05-03 07:39:00,33.4,26.3,30.38,NE,34,10.0,10.0,75,0.00,,,0.00,Wunderground v.1.15,2013-05-03 12:39:00,
2013-05-03 07:45:00,33.5,26.4,30.37,NW,307,6.0,10.0,75,0.00,,,0.00,Wunderground v.1.15,2013-05-03 12:45:00,
2013-05-03 07:50:00,33.7,26.6,30.37,North,360,5.0,10.0,75,0.00,,,0.00,Wunderground v.1.15,2013-05-03 12:50:00,
2013-05-03 07:55:00,33.8,26.7,30.37,NNE,22,7.0,10.0,75,0.00,,,0.00,Wunderground v.1.15,2013-05-03 12:55:00,
2013-05-03 08:00:00,33.9,26.8,30.37,NNE,32,2.0,10.0,75,0.00,,,0.00,Wunderground v.1.15,2013-05-03 13:00:00,
2013-05-03 08:05:00,34.1,27.0,30.37,NNE,13,5.0,8.0,75,0.00,,,0.00,Wunderground v.1.15,2013-05-03 13:05:00,
2013-05-03 08:10:00,34.1,27.0,30.37,NNW,347,7.0,8.0,75,0.00,,,0.00,Wunderground v.1.15,2013-05-03 13:10:00,
2013-05-03 08:15:00,34.3,26.9,30.37,North,360,6.0,10.0,74,0.00,,,0.00,Wunderground v.1.15,2013-05-03 13:15:00,
2013-05-03 08:20:00,34.4,27.0,30.36,NE,36,5.0,10.0,74,0.00,,,0.00,Wunderground v.1.15,2013-05-03 13:20:00,
2013-05-03 08:25:00,34.5,27.1,30.36,North,5,5.0,12.0,74,0.00,,,0.00,Wunderground v.1.15,2013-05-03 13:25:00,
2013-05-03 08:30:00,34.6,27.2,30.37,NNE,27,8.0,12.0,74,0.00,,,0.00,Wunderground v.1.15,2013-05-03 13:30:00,
2013-05-03 08:36:00,34.8,27.4,30.37,NNW,348,4.0,6.0,74,0.00,,,0.00,Wunderground v.1.15,2013-05-03 13:36:00,
2013-05-03 08:41:00,35.0,27.2,30.36,WNW,301,1.0,11.0,73,0.00,,,0.00,Wunderground v.1.15,2013-05-03 13:41:00,
2013-05-03 08:46:00,35.3,27.5,30.35,NE,34,6.0,12.0,73,0.00,,,0.00,Wunderground v.1.15,2013-05-03 13:46:00,
2013-05-03 08:51:00,35.7,27.9,30.35,North,5,7.0,12.0,73,0.00,,,0.00,Wunderground v.1.15,2013-05-03 13:51:00,
2013-05-03 08:56:00,35.9,27.4,30.35,North,11,5.0,11.0,71,0.00,,,0.00,Wunderground v.1.15,2013-05-03 13:56:00,
2013-05-03 09:01:00,36.2,27.7,30.35,NNE,14,4.0,13.0,71,0.00,,,0.00,Wunderground v.1.15,2013-05-03 14:01:00,
2013-05-03 09:07:00,36.6,27.7,30.34,NNE,33,8.0,9.0,70,0.00,,,0.00,Wunderground v.1.15,2013-05-03 14:07:00,
2013-05-03 09:12:00,36.8,27.6,30.35,North,355,3.0,5.0,69,0.00,,,0.00,Wunderground v.1.15,2013-05-03 14:12:00,
2013-05-03 09:17:00,36.9,28.4,30.34,North,355,6.0,8.0,71,0.00,,,0.00,Wunderground v.1.15,2013-05-03 14:17:00,
2013-05-03 09:22:00,37.1,27.5,30.35,North,349,5.0,10.0,68,0.00,,,0.00,Wunderground v.1.15,2013-05-03 14:22:00,
2013-05-03 09:27:00,37.3,28.1,30.34,NNE,12,3.0,10.0,69,0.00,,,0.00,Wunderground v.1.15,2013-05-03 14:27:00,
2013-05-03 09:32:00,37.4,28.2,30.34,North,350,5.0,5.0,69,0.00,,,0.00,Wunderground v.1.15,2013-05-03 14:32:00,
2013-05-03 09:37:00,37.6,28.0,30.33,NNE,13,4.0,11.0,68,0.00,,,0.00,Wunderground v.1.15,2013-05-03 14:37:00,
2013-05-03 09:43:00,37.9,27.9,30.33,NNE,28,3.0,6.0,67,0.00,,,0.00,Wunderground v.1.15,2013-05-03 14:43:00,
2013-05-03 09:48:00,38.2,28.2,30.34,NNW,333,5.0,12.0,67,0.00,,,0.00,Wunderground v.1.15,2013-05-03 14:48:00,
2013-05-03 09:53:00,38.4,27.7,30.34,NE,36,4.0,8.0,65,0.00,,,0.00,Wunderground v.1.15,2013-05-03 14:53:00,
2013-05-03 09:58:00,38.7,27.9,30.33,ENE,57,10.0,12.0,65,0.00,,,0.00,Wunderground v.1.15,2013-05-03 14:58:00,
2013-05-03 10:03:00,38.6,27.8,30.33,NNE,24,6.0,7.0,65,0.00,,,0.00,Wunderground v.1.15,2013-05-03 15:03:00,
2013-05-03 10:08:00,38.8,28.0,30.33,NNE,33,4.0,14.0,65,0.00,,,0.00,Wunderground v.1.15,2013-05-03 15:08:00,
2013-05-03 10:13:00,39.2,28.0,30.33,NNE,12,5.0,9.0,64,0.00,,,0.00,Wunderground v.1.15,2013-05-03 15:13:00,
2013-05-03 10:18:00,39.6,28.8,30.33,North,5,8.0,10.0,65,0.00,,,0.00,Wunderground v.1.15,2013-05-03 15:18:00,
2013-05-03 10:23:00,39.7,28.5,30.33,North,9,4.0,12.0,64,0.00,,,0.00,Wunderground v.1.15,2013-05-03 15:23:00,
2013-05-03 10:28:00,40.0,28.8,30.33,NNW,340,3.0,13.0,64,0.00,,,0.00,Wunderground v.1.15,2013-05-03 15:28:00,
2013-05-03 10:34:00,40.0,28.4,30.33,NNW,336,2.0,7.0,63,0.00,,,0.00,Wunderground v.1.15,2013-05-03 15:34:00,
2013-05-03 10:39:00,40.0,28.4,30.33,NNW,341,8.0,11.0,63,0.00,,,0.00,Wunderground v.1.15,2013-05-03 15:39:00,
2013-05-03 10:44:00,39.8,28.2,30.33,North,11,5.0,12.0,63,0.00,,,0.00,Wunderground v.1.15,2013-05-03 15:44:00,
2013-05-03 10:49:00,39.5,28.3,30.33,NE,53,10.0,13.0,64,0.00,,,0.00,Wunderground v.1.15,2013-05-03 15:49:00,
2013-05-03 10:54:00,39.3,28.5,30.33,NNE,23,3.0,7.0,65,0.00,,,0.00,Wunderground v.1.15,2013-05-03 15:54:00,
2013-05-03 10:59:00,39.2,28.8,30.33,NNW,338,9.0,11.0,66,0.00,,,0.00,Wunderground v.1.15,2013-05-03 15:59:00,
2013-05-03 11:04:00,39.0,28.2,30.33,NE,34,5.0,8.0,65,0.00,,,0.00,Wunderground v.1.15,2013-05-03 16:04:00,
2013-05-03 11:09:00,38.8,28.8,30.33,North,9,5.0,10.0,67,0.00,,,0.00,Wunderground v.1.15,2013-05-03 16:09:00,
2013-05-03 11:14:00,38.6,29.3,30.33,NNW,332,1.0,7.0,69,0.00,,,0.00,Wunderground v.1.15,2013-05-03 16:14:00,
2013-05-03 11:19:00,38.4,29.5,30.33,NE,51,3.0,10.0,70,0.00,,,0.00,Wunderground v.1.15,2013-05-03 16:19:00,
2013-05-03 11:25:00,38.4,29.8,30.32,NNW,338,4.0,6.0,71,0.00,,,0.00,Wunderground v.1.15,2013-05-03 16:25:00,
2013-05-03 11:30:00,38.6,30.0,30.32,NNE,22,0.0,10.0,71,0.00,,,0.00,Wunderground v.1.15,2013-05-03 16:30:00,
2013-05-03 11:35:00,38.7,30.1,30.32,NNE,30,5.0,8.0,71,0.00,,,0.00,Wunderground v.1.15,2013-05-03 16:35:00,
2013-05-03 11:40:00,38.7,30.4,30.32,NNW,346,10.0,13.0,72,0.00,,,0.00,Wunderground v.1.15,2013-05-03 16:40:00,
2013-05-03 11:45:00,38.8,30.5,30.32,North,355,2.0,8.0,72,0.00,,,0.00,Wunderground v.1.15,2013-05-03 16:45:00,
2013-05-03 11:50:00,39.0,31.1,30.32,NE,36,6.0,8.0,73,0.00,,,0.00,Wunderground v.1.15,2013-05-03 16:50:00,
2013-05-03 11:55:00,39.1,31.2,30.31,NNE,12,14.0,14.0,73,0.00,,,0.00,Wunderground v.1.15,2013-05-03 16:55:00,
2013-05-03 12:00:00,39.0,31.4,30.31,NNE,30,5.0,15.0,74,0.00,,,0.00,Wunderground v.1.15,2013-05-03 17:00:00,
2013-05-03 12:06:00,39.1,31.8,30.31,NW,326,6.0,9.0,75,0.00,,,0.00,Wunderground v.1.15,2013-05-03 17:06:00,
2013-05-03 12:11:00,39.3,32.0,30.30,NNE,17,5.0,11.0,75,0.00,,,0.00,Wunderground v.1.15,2013-05-03 17:11:00,
2013-05-03 12:16:00,39.5,31.9,30.30,ENE,75,3.0,12.0,74,0.00,,,0.00,Wunderground v.1.15,2013-05-03 17:16:00,
2013-05-03 12:21:00,40.0,32.4,30.30,NE,42,12.0,12.0,74,0.00,,,0.00,Wunderground v.1.15,2013-05-03 17:21:00,
2013-05-03 12:26:00,40.2,33.2,30.30,NE,40,3.0,12.0,76,0.00,,,0.00,Wunderground v.1.15,2013-05-03 17:26:00,
2013-05-03 12:32:00,39.7,33.1,30.30,NNE,12,6.0,6.0,77,0.00,,,0.00,Wunderground v.1.15,2013-05-03 17:32:00,
2013-05-03 12:37:00,39.1,33.1,30.29,NE,41,7.0,13.0,79,0.00,,,0.00,Wunderground v.1.15,2013-05-03 17:37:00,
2013-05-03 12:42:00,39.0,33.7,30.29,North,5,3.0,6.0,81,0.00,,,0.00,Wunderground v.1.15,2013-05-03 17:42:00,
2013-05-03 12:47:00,39.3,34.3,30.28,North,350,3.0,8.0,82,0.00,,,0.00,Wunderground v.1.15,2013-05-03 17:47:00,
2013-05-03 12:52:00,39.1,33.8,30.28,North,355,11.0,11.0,81,0.00,,,0.00,Wunderground v.1.15,2013-05-03 17:52:00,
2013-05-03 12:57:00,39.1,34.4,30.28,NNE,22,4.0,11.0,83,0.00,,,0.00,Wunderground v.1.15,2013-05-03 17:57:00,
2013-05-03 13:03:00,39.6,34.9,30.27,NNE,22,5.0,6.0,83,0.00,,,0.00,Wunderground v.1.15,2013-05-03 18:03:00,
2013-05-03 13:08:00,40.0,34.9,30.27,NE,34,0.0,10.0,82,0.00,,,0.00,Wunderground v.1.15,2013-05-03 18:08:00,
2013-05-03 13:13:00,40.4,34.4,30.28,NNE,13,4.0,11.0,79,0.00,,,0.00,Wunderground v.1.15,2013-05-03 18:13:00,
2013-05-03 13:18:00,40.5,34.8,30.27,NNW,330,4.0,11.0,80,0.00,,,0.00,Wunderground v.1.15,2013-05-03 18:18:00,
2013-05-03 13:23:00,40.7,35.0,30.26,NNE,15,6.0,12.0,80,0.00,,,0.00,Wunderground v.1.15,2013-05-03 18:23:00,
2013-05-03 13:29:00,40.9,33.9,30.26,ENE,71,1.0,12.0,76,0.00,,,0.00,Wunderground v.1.15,2013-05-03 18:29:00,
2013-05-03 13:34:00,40.9,33.6,30.26,ENE,61,4.0,10.0,75,0.00,,,0.00,Wunderground v.1.15,2013-05-03 18:34:00,
2013-05-03 13:39:00,41.1,33.8,30.26,NNW,339,7.0,10.0,75,0.00,,,0.00,Wunderground v.1.15,2013-05-03 18:39:00,
2013-05-03 13:44:00,41.0,33.7,30.26,NNE,13,13.0,13.0,75,0.00,,,0.00,Wunderground v.1.15,2013-05-03 18:44:00,
2013-05-03 13:49:00,40.8,33.8,30.26,ENE,61,3.0,15.0,76,0.00,,,0.00,Wunderground v.1.15,2013-05-03 18:49:00,
2013-05-03 13:54:00,41.0,34.3,30.26,ENE,69,6.0,12.0,77,0.00,,,0.00,Wunderground v.1.15,2013-05-03 18:54:00,
2013-05-03 13:59:00,40.9,33.9,30.26,North,360,2.0,14.0,76,0.00,,,0.00,Wunderground v.1.15,2013-05-03 18:59:00,
2013-05-03 14:04:00,40.9,34.2,30.25,East,89,8.0,13.0,77,0.00,,,0.00,Wunderground v.1.15,2013-05-03 19:04:00,
2013-05-03 14:10:00,40.7,34.4,30.25,NE,42,11.0,14.0,78,0.00,,,0.00,Wunderground v.1.15,2013-05-03 19:10:00,
2013-05-03 14:15:00,40.7,34.4,30.26,NNE,14,4.0,11.0,78,0.00,,,0.00,Wunderground v.1.15,2013-05-03 19:15:00,
2013-05-03 14:20:00,40.6,34.6,30.26,NNW,343,6.0,14.0,79,0.00,,,0.00,Wunderground v.1.15,2013-05-03 19:20:00,
2013-05-03 14:25:00,40.3,34.6,30.25,ENE,63,3.0,7.0,80,0.00,,,0.00,Wunderground v.1.15,2013-05-03 19:25:00,
2013-05-03 14:30:00,40.2,34.8,30.25,NNE,17,3.0,12.0,81,0.00,,,0.00,Wunderground v.1.15,2013-05-03 19:30:00,
2013-05-03 14:35:00,40.0,34.6,30.25,NNE,32,5.0,11.0,81,0.00,,,0.00,Wunderground v.1.15,2013-05-03 19:35:00,
2013-05-03 14:40:00,39.7,34.3,30.25,NNW,331,7.0,17.0,81,0.00,,,0.00,Wunderground v.1.15,2013-05-03 19:40:00,
2013-05-03 14:45:00,39.5,34.5,30.25,ENE,57,10.0,12.0,82,0.00,,,0.01,Wunderground v.1.15,2013-05-03 19:45:00,
2013-05-03 14:50:00,39.5,34.8,30.25,ENE,61,2.0,12.0,83,0.00,,,0.01,Wunderground v.1.15,2013-05-03 19:50:00,
2013-05-03 14:56:00,39.6,35.2,30.25,North,11,4.0,11.0,84,0.00,,,0.01,Wunderground v.1.15,2013-05-03 19:56:00,
2013-05-03 15:01:00,39.6,35.2,30.25,NE,49,6.0,13.0,84,0.00,,,0.01,Wunderground v.1.15,2013-05-03 20:01:00,
2013-05-03 15:06:00,39.5,34.8,30.25,NE,36,6.0,10.0,83,0.00,,,0.01,Wunderground v.1.15,2013-05-03 20:06:00,
2013-05-03 15:11:00,39.5,35.1,30.25,NE,42,2.0,10.0,84,0.00,,,0.01,Wunderground v.1.15,2013-05-03 20:11:00,
2013-05-03 15:16:00,39.5,35.1,30.25,NE,34,7.0,11.0,84,0.00,,,0.01,Wunderground v.1.15,2013-05-03 20:16:00,
2013-05-03 15:21:00,39.4,35.0,30.25,NNE,30,0.0,11.0,84,0.00,,,0.01,Wunderground v.1.15,2013-05-03 20:21:00,
2013-05-03 15:26:00,39.4,35.0,30.25,NNE,17,3.0,10.0,84,0.00,,,0.01,Wunderground v.1.15,2013-05-03 20:26:00,
2013-05-03 15:31:00,39.3,35.2,30.25,ENE,72,7.0,10.0,85,0.00,,,0.01,Wunderground v.1.15,2013-05-03 20:31:00,
2013-05-03 15:36:00,39.1,35.0,30.24,NE,50,10.0,14.0,85,0.00,,,0.01,Wunderground v.1.15,2013-05-03 20:36:00,
2013-05-03 15:41:00,39.2,35.1,30.24,NE,52,4.0,17.0,85,0.00,,,0.01,Wunderground v.1.15,2013-05-03 20:41:00,
2013-05-03 15:46:00,39.2,35.4,30.23,ENE,62,5.0,13.0,86,0.00,,,0.01,Wunderground v.1.15,2013-05-03 20:46:00,
2013-05-03 15:51:00,39.3,36.0,30.24,NNW,343,9.0,14.0,88,0.00,,,0.01,Wunderground v.1.15,2013-05-03 20:51:00,
2013-05-03 15:57:00,39.2,35.7,30.24,NE,36,6.0,16.0,87,0.00,,,0.02,Wunderground v.1.15,2013-05-03 20:57:00,
2013-05-03 16:02:00,39.1,35.6,30.24,NNE,28,1.0,5.0,87,0.00,,,0.02,Wunderground v.1.15,2013-05-03 21:02:00,
2013-05-03 16:07:00,39.1,35.8,30.24,NE,40,6.0,11.0,88,0.00,,,0.02,Wunderground v.1.15,2013-05-03 21:07:00,
2013-05-03 16:12:00,38.9,35.6,30.25,East,88,7.0,7.0,88,0.00,,,0.02,Wunderground v.1.15,2013-05-03 21:12:00,
2013-05-03 16:17:00,38.8,35.8,30.25,NE,34,7.0,9.0,89,0.00,,,0.02,Wunderground v.1.15,2013-05-03 21:17:00,
2013-05-03 16:22:00,38.7,35.7,30.24,NNE,24,1.0,5.0,89,0.00,,,0.02,Wunderground v.1.15,2013-05-03 21:22:00,
2013-05-03 16:27:00,38.6,35.6,30.24,NE,48,0.0,10.0,89,0.00,,,0.02,Wunderground v.1.15,2013-05-03 21:27:00,
2013-05-03 16:33:00,38.4,35.7,30.24,NNE,22,9.0,9.0,90,0.00,,,0.02,Wunderground v.1.15,2013-05-03 21:33:00,
2013-05-03 16:38:00,38.3,35.6,30.23,NNE,32,4.0,11.0,90,0.00,,,0.02,Wunderground v.1.15,2013-05-03 21:38:00,
2013-05-03 16:43:00,38.2,35.5,30.23,NE,34,3.0,6.0,90,0.00,,,0.03,Wunderground v.1.15,2013-05-03 21:43:00,
2013-05-03 16:48:00,38.1,35.4,30.23,NE,55,6.0,7.0,90,0.00,,,0.03,Wunderground v.1.15,2013-05-03 21:48:00,
2013-05-03 16:53:00,38.1,35.7,30.23,NE,45,4.0,6.0,91,0.00,,,0.03,Wunderground v.1.15,2013-05-03 21:53:00,
2013-05-03 16:58:00,38.0,35.6,30.23,East,79,7.0,12.0,91,0.00,,,0.03,Wunderground v.1.15,2013-05-03 21:58:00,
2013-05-03 17:03:00,38.0,35.6,30.23,NNE,30,0.0,6.0,91,0.00,,,0.03,Wunderground v.1.15,2013-05-03 22:03:00,
2013-05-03 17:08:00,37.9,35.2,30.23,NE,44,5.0,16.0,90,0.00,,,0.03,Wunderground v.1.15,2013-05-03 22:08:00,
2013-05-03 17:13:00,37.8,35.1,30.23,North,355,7.0,9.0,90,0.00,,,0.03,Wunderground v.1.15,2013-05-03 22:13:00,
2013-05-03 17:18:00,37.8,35.4,30.23,NE,42,5.0,12.0,91,0.00,,,0.03,Wunderground v.1.15,2013-05-03 22:18:00,
2013-05-03 17:24:00,37.8,35.4,30.23,NE,46,5.0,12.0,91,0.00,,,0.03,Wunderground v.1.15,2013-05-03 22:24:00,
2013-05-03 17:29:00,37.9,35.5,30.23,NNE,22,9.0,12.0,91,0.00,,,0.03,Wunderground v.1.15,2013-05-03 22:29:00,
2013-05-03 17:34:00,37.9,35.5,30.23,NNE,32,1.0,11.0,91,0.00,,,0.03,Wunderground v.1.15,2013-05-03 22:34:00,
2013-05-03 17:39:00,37.9,35.5,30.23,NE,40,4.0,11.0,91,0.00,,,0.03,Wunderground v.1.15,2013-05-03 22:39:00,
2013-05-03 17:44:00,37.8,35.4,30.23,ENE,69,0.0,7.0,91,0.00,,,0.03,Wunderground v.1.15,2013-05-03 22:44:00,
2013-05-03 17:50:00,37.8,35.4,30.23,NE,51,4.0,12.0,91,0.00,,,0.03,Wunderground v.1.15,2013-05-03 22:50:00,
2013-05-03 17:55:00,37.8,35.4,30.23,NE,36,1.0,9.0,91,0.00,,,0.03,Wunderground v.1.15,2013-05-03 22:55:00,
2013-05-03 18:00:00,37.8,35.4,30.23,ENE,67,4.0,10.0,91,0.00,,,0.03,Wunderground v.1.15,2013-05-03 23:00:00,
2013-05-03 18:05:00,37.7,35.3,30.23,NE,41,6.0,6.0,91,0.00,,,0.03,Wunderground v.1.15,2013-05-03 23:05:00,
2013-05-03 18:10:00,37.6,35.2,30.24,NE,34,4.0,7.0,91,0.00,,,0.04,Wunderground v.1.15,2013-05-03 23:10:00,
2013-05-03 18:15:00,37.5,35.4,30.23,ENE,64,6.0,8.0,92,0.00,,,0.04,Wunderground v.1.15,2013-05-03 23:15:00,
2013-05-03 18:21:00,37.5,35.4,30.23,NE,49,5.0,10.0,92,0.00,,,0.04,Wunderground v.1.15,2013-05-03 23:21:00,
2013-05-03 18:26:00,37.4,35.3,30.24,East,80,4.0,4.0,92,0.00,,,0.04,Wunderground v.1.15,2013-05-03 23:26:00,
2013-05-03 18:31:00,37.4,35.3,30.23,NE,55,7.0,11.0,92,0.00,,,0.04,Wunderground v.1.15,2013-05-03 23:31:00,
2013-05-03 18:36:00,37.4,35.3,30.24,ENE,73,4.0,11.0,92,0.00,,,0.04,Wunderground v.1.15,2013-05-03 23:36:00,
2013-05-03 18:41:00,37.3,35.2,30.24,East,86,13.0,13.0,92,0.00,,,0.04,Wunderground v.1.15,2013-05-03 23:41:00,
2013-05-03 18:46:00,37.3,35.2,30.24,NNE,24,3.0,11.0,92,0.00,,,0.04,Wunderground v.1.15,2013-05-03 23:46:00,
2013-05-03 18:51:00,37.3,35.2,30.24,NNE,27,2.0,11.0,92,0.00,,,0.04,Wunderground v.1.15,2013-05-03 23:51:00,
2013-05-03 18:56:00,37.2,35.1,30.24,NNE,24,3.0,6.0,92,0.00,,,0.04,Wunderground v.1.15,2013-05-03 23:56:00,
2013-05-03 19:02:00,37.0,34.6,30.25,ENE,73,8.0,8.0,91,0.00,,,0.04,Wunderground v.1.15,2013-05-04 00:02:00,
2013-05-03 19:07:00,36.9,34.5,30.24,ENE,76,4.0,10.0,91,0.00,,,0.04,Wunderground v.1.15,2013-05-04 00:07:00,
2013-05-03 19:12:00,36.9,34.5,30.24,NNE,26,3.0,5.0,91,0.00,,,0.04,Wunderground v.1.15,2013-05-04 00:12:00,
2013-05-03 19:18:00,36.9,34.8,30.24,ENE,65,7.0,7.0,92,0.00,,,0.04,Wunderground v.1.15,2013-05-04 00:18:00,
2013-05-03 19:23:00,36.8,34.4,30.24,ENE,68,6.0,10.0,91,0.00,,,0.04,Wunderground v.1.15,2013-05-04 00:23:00,
2013-05-03 19:28:00,36.6,34.2,30.25,ENE,69,4.0,14.0,91,0.00,,,0.04,Wunderground v.1.15,2013-05-04 00:28:00,
2013-05-03 19:33:00,36.5,34.1,30.24,ENE,65,0.0,7.0,91,0.00,,,0.05,Wunderground v.1.15,2013-05-04 00:33:00,
2013-05-03 19:38:00,36.4,34.0,30.24,East,81,12.0,12.0,91,0.00,,,0.05,Wunderground v.1.15,2013-05-04 00:38:00,
2013-05-03 19:43:00,36.3,33.9,30.24,ENE,67,0.0,6.0,91,0.00,,,0.05,Wunderground v.1.15,2013-05-04 00:43:00,
2013-05-03 19:48:00,36.2,33.8,30.24,NE,42,3.0,10.0,91,0.00,,,0.05,Wunderground v.1.15,2013-05-04 00:48:00,
2013-05-03 19:54:00,36.2,34.1,30.24,NNE,21,7.0,7.0,92,0.00,,,0.05,Wunderground v.1.15,2013-05-04 00:54:00,
2013-05-03 19:59:00,36.1,34.0,30.24,NE,52,7.0,7.0,92,0.00,,,0.05,Wunderground v.1.15,2013-05-04 00:59:00,
2013-05-03 20:04:00,36.1,34.0,30.23,NE,37,3.0,8.0,92,0.00,,,0.05,Wunderground v.1.15,2013-05-04 01:04:00,
2013-05-03 20:09:00,36.0,33.9,30.23,NE,44,4.0,8.0,92,0.00,,,0.05,Wunderground v.1.15,2013-05-04 01:09:00,
2013-05-03 20:14:00,35.9,33.8,30.24,North,11,3.0,8.0,92,0.00,,,0.05,Wunderground v.1.15,2013-05-04 01:14:00,
2013-05-03 20:19:00,35.8,33.7,30.24,ENE,66,5.0,10.0,92,0.00,,,0.05,Wunderground v.1.15,2013-05-04 01:19:00,
2013-05-03 20:25:00,35.6,33.5,30.23,NE,49,4.0,10.0,92,0.00,,,0.05,Wunderground v.1.15,2013-05-04 01:25:00,
2013-05-03 20:30:00,35.7,33.6,30.23,NNE,26,10.0,12.0,92,0.00,,,0.05,Wunderground v.1.15,2013-05-04 01:30:00,
2013-05-03 20:35:00,35.6,33.5,30.23,NE,46,8.0,10.0,92,0.00,,,0.05,Wunderground v.1.15,2013-05-04 01:35:00,
2013-05-03 20:40:00,35.5,33.1,30.23,ENE,67,8.0,14.0,91,0.00,,,0.05,Wunderground v.1.15,2013-05-04 01:40:00,
2013-05-03 20:45:00,35.4,33.0,30.23,NE,49,3.0,13.0,91,0.00,,,0.05,Wunderground v.1.15,2013-05-04 01:45:00,
2013-05-03 20:50:00,35.3,32.9,30.23,NE,36,3.0,13.0,91,0.00,,,0.05,Wunderground v.1.15,2013-05-04 01:50:00,
2013-05-03 20:55:00,35.3,32.9,30.23,NE,34,5.0,9.0,91,0.00,,,0.05,Wunderground v.1.15,2013-05-04 01:55:00,
2013-05-03 21:00:00,35.2,32.8,30.24,NNE,27,8.0,13.0,91,0.00,,,0.05,Wunderground v.1.15,2013-05-04 02:00:00,
2013-05-03 21:05:00,35.2,33.1,30.24,NE,43,6.0,7.0,92,0.00,,,0.05,Wunderground v.1.15,2013-05-04 02:05:00,
2013-05-03 21:10:00,35.2,33.1,30.23,ENE,57,7.0,12.0,92,0.00,,,0.05,Wunderground v.1.15,2013-05-04 02:10:00,
2013-05-03 21:16:00,35.1,33.0,30.23,NE,40,7.0,9.0,92,0.00,,,0.05,Wunderground v.1.15,2013-05-04 02:16:00,
2013-05-03 21:21:00,35.1,33.0,30.24,North,5,8.0,18.0,92,0.00,,,0.05,Wunderground v.1.15,2013-05-04 02:21:00,
2013-05-03 21:26:00,35.0,32.6,30.23,NE,40,5.0,10.0,91,0.00,,,0.05,Wunderground v.1.15,2013-05-04 02:26:00,
2013-05-03 21:31:00,35.0,32.9,30.24,NNE,12,7.0,13.0,92,0.00,,,0.05,Wunderground v.1.15,2013-05-04 02:31:00,
2013-05-03 21:36:00,35.0,32.9,30.24,NE,39,4.0,9.0,92,0.00,,,0.05,Wunderground v.1.15,2013-05-04 02:36:00,
2013-05-03 21:41:00,35.0,32.9,30.24,ENE,60,3.0,10.0,92,0.00,,,0.05,Wunderground v.1.15,2013-05-04 02:41:00,
2013-05-03 21:46:00,34.9,32.8,30.23,NE,45,4.0,8.0,92,0.00,,,0.05,Wunderground v.1.15,2013-05-04 02:46:00,
2013-05-03 21:51:00,34.8,33.0,30.23,ENE,71,7.0,10.0,93,0.00,,,0.05,Wunderground v.1.15,2013-05-04 02:51:00,
2013-05-03 21:56:00,34.8,32.7,30.24,ENE,70,4.0,7.0,92,0.00,,,0.05,Wunderground v.1.15,2013-05-04 02:56:00,
2013-05-03 22:02:00,34.7,32.9,30.24,East,88,5.0,5.0,93,0.00,,,0.06,Wunderground v.1.15,2013-05-04 03:02:00,
2013-05-03 22:07:00,34.7,32.9,30.24,NNE,20,0.0,8.0,93,0.00,,,0.06,Wunderground v.1.15,2013-05-04 03:07:00,
2013-05-03 22:12:00,34.7,32.9,30.23,North,11,6.0,12.0,93,0.00,,,0.06,Wunderground v.1.15,2013-05-04 03:12:00,
2013-05-03 22:18:00,34.6,32.8,30.23,NE,44,6.0,12.0,93,0.00,,,0.06,Wunderground v.1.15,2013-05-04 03:18:00,
2013-05-03 22:23:00,34.6,32.8,30.23,NE,49,4.0,9.0,93,0.00,,,0.06,Wunderground v.1.15,2013-05-04 03:23:00,
2013-05-03 22:28:00,34.5,32.7,30.23,ENE,67,6.0,13.0,93,0.00,,,0.06,Wunderground v.1.15,2013-05-04 03:28:00,
2013-05-03 22:33:00,34.6,32.8,30.23,ENE,57,6.0,8.0,93,0.00,,,0.06,Wunderground v.1.15,2013-05-04 03:33:00,
2013-05-03 22:39:00,34.5,32.7,30.23,ENE,57,5.0,8.0,93,0.00,,,0.06,Wunderground v.1.15,2013-05-04 03:39:00,
2013-05-03 22:44:00,34.5,32.7,30.23,NE,46,3.0,8.0,93,0.00,,,0.06,Wunderground v.1.15,2013-05-04 03:44:00,
2013-05-03 22:49:00,34.5,32.7,30.23,ENE,65,4.0,14.0,93,0.00,,,0.06,Wunderground v.1.15,2013-05-04 03:49:00,
2013-05-03 22:54:00,34.4,32.6,30.23,NNE,22,4.0,6.0,93,0.00,,,0.06,Wunderground v.1.15,2013-05-04 03:54:00,
2013-05-03 22:59:00,34.4,32.6,30.23,East,88,7.0,12.0,93,0.00,,,0.06,Wunderground v.1.15,2013-05-04 03:59:00,
2013-05-03 23:01:00,34.4,32.6,30.23,ENE,69,6.0,12.0,93,0.00,,,0.06,Wunderground v.1.15,2013-05-04 04:01:00,
2013-05-03 23:03:00,34.4,32.6,30.23,North,355,5.0,6.0,93,0.00,,,0.06,Wunderground v.1.15,2013-05-04 04:03:00,
2013-05-03 23:08:00,34.4,32.6,30.24,ENE,77,0.0,6.0,93,0.00,,,0.06,Wunderground v.1.15,2013-05-04 04:08:00,
2013-05-03 23:13:00,34.4,32.6,30.23,NE,40,6.0,11.0,93,0.00,,,0.06,Wunderground v.1.15,2013-05-04 04:13:00,
2013-05-03 23:19:00,34.4,32.6,30.23,ENE,62,4.0,11.0,93,0.00,,,0.06,Wunderground v.1.15,2013-05-04 04:19:00,
2013-05-03 23:24:00,34.4,32.6,30.23,ENE,71,3.0,5.0,93,0.00,,,0.06,Wunderground v.1.15,2013-05-04 04:24:00,
2013-05-03 23:29:00,34.4,32.6,30.23,NNE,19,4.0,9.0,93,0.00,,,0.06,Wunderground v.1.15,2013-05-04 04:29:00,
2013-05-03 23:34:00,34.4,32.6,30.23,NE,41,10.0,11.0,93,0.00,,,0.06,Wunderground v.1.15,2013-05-04 04:34:00,
2013-05-03 23:39:00,34.4,32.6,30.23,ENE,67,6.0,11.0,93,0.00,,,0.06,Wunderground v.1.15,2013-05-04 04:39:00,
2013-05-03 23:44:00,34.4,32.6,30.22,ENE,63,5.0,12.0,93,0.00,,,0.06,Wunderground v.1.15,2013-05-04 04:44:00,
2013-05-03 23:49:00,34.3,32.5,30.22,ENE,63,4.0,13.0,93,0.00,,,0.06,Wunderground v.1.15,2013-05-04 04:49:00,
2013-05-03 23:54:00,34.3,32.5,30.22,NE,50,2.0,10.0,93,0.00,,,0.06,Wunderground v.1.15,2013-05-04 04:54:00,
2013-05-03 23:59:00,34.3,32.5,30.22,East,80,11.0,11.0,93,0.00,,,0.06,Wunderground v.1.15,2013-05-04 04:59:00,